Theta_e
300 301 301 302 302 303 304 304 302 301 302 295 292 298 295 296 294 305 309 313 310 302 295 296 294 292 294 297 296 295 294 293 293 294 293 293 295 292 292 292 292 292 293 290 289 290 287 287 286 287 287 290 295 296 294 295 294 296 288 294 292 292 285 282 285 288 289 292 293 293 291 289 286 286 288 287 285 286 284 284 285 283 283 282 281 279 282
300 300 300 300 301 301 302 303 303 302 302 295 295 294 293 295 294 298 308 311 308 299 289 290 292 293 295 295 295 296 295 293 291 291 291 293 291 292 290 291 295 292 293 291 290 291 286 290 292 288 289 287 295 296 296 295 291 293 289 291 291 286 285 286 282 282 280 283 285 287 286 285 286 287 288 288 289 288 287 286 284 281 282 283 280 275 282
300 300 300 300 300 300 300 301 303 303 303 301 294 289 292 292 296 297 301 307 302 293 298 295 292 293 293 294 293 294 294 293 296 296 292 294 292 291 289 294 291 290 291 291 292 290 292 287 289 290 286 289 286 292 296 296 293 296 294 296 293 289 287 285 279 276 274 273 275 276 280 282 284 283 287 288 286 286 284 281 282 279 282 284 280 280 286
300 300 300 300 299 299 299 299 300 302 302 303 294 290 290 287 282 288 294 300 300 298 300 296 293 291 291 291 293 295 292 294 292 295 294 297 293 295 291 289 291 289 289 287 288 289 290 289 284 287 282 283 287 287 289 291 292 294 295 292 291 284 286 288 286 283 281 282 284 284 283 281 280 281 285 285 286 287 286 285 283 280 283 282 284 285 285
300 301 300 300 300 300 300 299 299 300 301 302 292 289 290 290 284 285 281 294 295 293 297 295 295 290 295 288 292 291 292 294 293 294 288 292 295 291 292 290 290 287 290 288 289 290 289 290 289 287 288 287 286 288 288 288 290 293 293 292 288 283 284 287 287 287 287 288 288 290 291 287 287 285 284 285 284 284 283 281 280 286 283 278 285 287 284
301 301 301 300 300 300 300 300 299 299 300 301 293 283 287 282 284 288 290 288 284 288 288 293 292 294 293 289 292 289 289 288 289 291 292 291 291 289 288 292 292 291 290 289 285 287 288 287 286 288 283 282 285 286 288 287 289 290 287 290 289 284 282 286 287 286 288 288 289 290 290 289 288 288 286 285 286 286 283 283 285 285 282 280 285 287 285
301 301 300 300 300 300 300 299 300 298 299 301 289 283 283 286 285 286 289 284 287 287 287 287 287 288 291 288 290 288 288 287 289 288 286 289 287 292 285 288 290 289 287 287 284 287 283 284 284 281 282 281 282 282 283 286 287 285 285 286 288 285 283 286 287 286 287 288 288 289 287 287 288 287 286 287 286 286 286 286 287 286 284 286 286 286 286
301 301 301 300 300 300 300 300 299 299 299 294 287 286 281 279 283 281 288 287 284 284 285 285 285 284 288 285 287 290 289 288 290 288 288 285 286 290 288 284 282 285 285 286 283 285 286 283 281 284 281 280 284 281 283 283 285 285 282 285 285 286 281 287 284 282 283 286 287 287 286 285 283 286 287 287 287 287 287 287 287 287 286 287 287 286 285
300 300 300 300 300 300 300 300 299 299 301 289 288 283 286 286 288 289 283 281 282 281 279 282 283 283 285 284 286 289 288 288 288 286 290 289 287 288 284 284 284 284 284 285 284 286 283 283 283 284 283 278 283 279 279 285 279 281 282 285 285 285 281 285 283 279 279 284 284 285 285 285 283 283 285 285 285 283 285 285 288 286 284 286 286 284 283
300 300 300 300 300 300 300 299 300 299 300 290 288 283 286 285 284 289 287 279 283 280 281 279 280 278 283 286 286 286 285 284 286 283 288 286 287 284 284 284 283 283 283 282 285 286 285 285 286 286 287 286 284 284 283 283 281 281 281 283 280 282 281 280 280 277 276 282 283 283 283 281 278 280 284 286 286 287 287 287 288 288 286 282 280 278 276
300 300 299 299 299 299 299 299 299 300 296 290 288 284 284 283 283 284 286 279 280 281 280 279 278 279 278 279 279 282 283 283 283 282 283 286 285 286 284 283 281 280 281 285 288 287 286 287 287 287 286 285 285 284 284 284 284 283 281 279 279 281 280 278 281 275 275 280 280 281 277 271 273 286 285 286 284 283 282 281 277 277 280 279 280 277 279
301 301 300 299 299 300 300 300 299 300 300 293 293 287 287 286 285 285 281 277 278 282 278 276 277 277 278 278 278 279 279 279 280 283 279 282 284 285 284 283 284 277 287 286 287 287 288 288 286 285 284 283 283 283 282 281 282 285 284 280 278 278 279 277 279 275 274 277 277 274 269 271 281 281 280 281 279 277 277 276 276 277 278 280 279 278 277
301 301 301 301 301 301 301 300 300 300 300 294 293 288 288 289 286 283 283 280 276 279 277 277 278 277 278 278 277 278 278 278 279 280 280 280 279 280 282 282 282 283 287 285 285 284 280 277 278 279 278 279 278 280 279 279 280 281 283 284 280 277 277 276 275 275 276 273 272 266 267 279 279 278 279 280 278 277 276 275 275 276 278 279 278 278 278
300 300 300 300 300 300 300 300 300 300 300 298 292 291 288 289 287 286 283 279 277 280 280 279 279 278 278 278 278 278 278 278 278 278 277 279 279 279 280 282 282 285 283 282 280 279 272 271 264 266 267 268 264 266 272 277 278 279 279 281 284 281 279 275 273 276 269 270 270 270 276 276 279 277 275 277 272 273 272 269 275 276 277 279 278 278 278
300 300 300 300 300 300 300 300 300 300 300 299 293 290 289 289 290 287 287 284 277 280 281 275 278 277 278 277 278 276 276 276 276 275 278 278 277 280 280 282 282 281 282 280 274 276 270 266 261 263 260 262 260 260 272 266 274 277 278 279 281 283 278 279 275 273 279 272 271 271 270 267 269 272 276 280 280 280 279 277 273 277 277 280 278 276 277
300 300 300 300 300 299 301 301 300 300 300 299 295 292 291 291 290 289 286 283 281 274 278 282 281 278 277 277 278 277 275 275 275 273 274 275 276 279 280 280 280 280 281 278 277 270 266 266 265 265 261 260 262 265 260 266 266 269 277 276 276 277 282 281 278 275 277 274 271 270 269 271 272 271 277 279 280 281 279 276 269 278 276 278 279 276 278
300 300 300 300 300 299 300 299 300 300 300 300 293 292 290 292 289 288 286 284 283 277 284 282 283 281 279 276 280 278 278 275 276 272 270 272 276 276 276 277 278 280 279 276 273 270 266 263 260 262 262 268 263 262 266 264 262 264 272 270 269 267 267 272 273 274 274 272 269 267 272 267 273 272 275 277 278 277 278 268 269 276 277 280 280 277 278
300 300 300 300 300 299 299 300 300 300 299 299 295 291 290 292 292 287 285 284 281 280 285 285 282 280 278 279 278 278 277 274 274 274 274 273 270 273 273 273 274 277 280 272 271 268 267 264 264 265 264 271 269 269 264 269 262 263 266 268 265 264 267 267 268 267 269 272 268 270 271 277 274 271 275 276 277 274 266 265 269 274 275 278 278 276 277
300 300 299 299 299 300 300 300 300 299 300 300 296 291 291 292 291 290 287 284 282 278 285 287 287 283 284 283 278 278 278 278 275 273 266 271 271 272 275 272 277 270 274 271 271 264 267 265 266 259 262 260 269 263 267 266 265 268 269 268 267 265 268 267 268 266 267 268 268 268 272 276 273 275 277 277 274 266 266 270 275 275 276 276 278 278 278
299 299 299 299 299 300 299 299 299 299 299 299 296 289 291 294 291 290 287 283 284 281 284 283 284 282 283 281 279 277 276 277 278 276 271 271 272 273 274 271 272 265 265 272 269 269 264 265 267 264 262 260 264 270 265 267 272 268 269 270 270 269 270 266 267 266 267 266 265 265 262 271 273 273 273 275 266 266 274 275 275 277 276 278 278 279 279
298 298 299 299 299 299 299 299 299 299 299 299 298 290 288 291 290 289 289 287 284 280 282 288 286 285 285 283 283 283 281 278 278 275 277 278 276 274 269 269 268 264 264 270 265 268 267 263 266 266 267 266 266 268 261 261 262 269 272 271 271 272 265 263 265 269 264 264 263 262 266 270 274 273 269 273 276 277 277 277 275 278 279 279 279 279 279
298 298 299 298 299 299 299 298 299 299 299 299 298 289 286 290 291 291 290 289 284 282 283 286 286 286 287 288 287 287 285 284 284 284 279 276 274 278 274 274 266 265 265 267 265 266 266 264 264 261 262 264 263 266 262 265 264 265 264 269 264 271 270 271 267 270 269 264 269 272 274 274 276 277 276 277 277 277 276 275 276 276 277 280 278 278 278
299 299 299 298 298 299 298 298 299 299 299 298 296 289 287 288 289 292 289 284 286 287 287 285 286 285 287 288 287 288 288 288 287 285 284 280 276 277 278 277 275 275 273 275 272 271 270 268 268 268 265 266 270 267 261 266 261 259 266 270 271 272 272 272 271 270 275 275 275 277 276 275 277 278 277 275 275 275 275 274 274 276 278 277 278 277 276
297 297 298 298 298 298 298 298 297 297 298 298 297 289 288 289 289 288 286 286 283 280 284 285 282 280 282 283 287 289 287 286 287 287 288 286 277 276 277 279 280 277 274 278 279 276 269 268 271 272 270 271 267 265 266 264 265 266 268 268 269 270 274 271 270 273 270 265 275 274 274 276 275 275 276 275 275 275 276 276 277 278 278 276 275 275 274
298 297 298 298 298 297 298 298 298 297 297 298 297 295 289 287 290 289 285 279 280 279 275 279 281 285 288 290 289 287 288 289 290 288 286 286 284 279 277 280 283 280 278 279 280 275 268 269 269 268 268 274 274 268 273 269 268 272 265 269 268 269 275 272 272 272 270 269 274 275 275 275 276 275 275 275 276 277 276 277 278 278 276 275 274 273 272
297 297 298 297 297 297 297 297 297 297 298 297 296 289 287 287 290 290 287 286 284 281 276 275 279 284 284 284 283 285 287 289 288 288 287 286 287 286 284 283 280 282 281 280 278 276 275 272 269 268 269 271 279 272 272 275 272 274 272 270 274 274 272 261 268 269 272 274 274 274 275 275 275 276 277 277 277 276 276 276 275 273 273 272 271 272 272
297 297 297 297 297 297 297 296 296 296 297 297 294 291 289 288 291 288 286 285 281 276 278 276 279 279 280 281 283 283 285 287 287 286 286 287 286 286 285 282 281 281 280 279 278 276 273 271 272 270 273 272 276 272 273 270 273 270 271 275 275 272 270 274 272 268 268 269 272 275 269 269 274 274 274 275 274 274 275 274 272 272 271 271 271 271 271
296 296 297 297 297 297 297 297 296 297 297 296 294 292 290 288 290 291 290 288 283 277 278 275 273 276 279 275 280 282 284 286 285 285 284 285 285 285 284 283 282 280 280 279 275 275 273 272 272 277 277 274 273 271 277 276 276 273 273 274 276 273 274 274 270 269 269 274 276 276 276 275 275 276 277 276 274 274 274 274 272 271 270 270 270 269 270
296 296 296 296 296 295 296 296 296 296 295 295 288 284 284 288 290 291 291 290 288 283 281 281 280 276 275 278 282 282 282 284 284 283 283 283 283 283 283 283 281 281 281 281 279 278 276 275 278 275 272 275 272 270 273 268 269 268 272 277 277 278 278 276 276 276 277 278 278 278 276 274 276 277 275 272 272 272 272 270 269 269 269 269 269 269 267
296 296 295 296 296 296 296 296 297 296 296 286 285 284 282 284 289 289 291 290 287 286 279 277 273 277 280 280 277 279 281 283 282 282 282 282 282 282 282 282 282 283 281 280 279 274 277 277 278 279 279 279 274 271 271 271 270 272 277 278 278 278 278 279 279 276 276 279 278 278 276 276 276 273 271 269 268 268 268 268 268 268 268 268 267 267 267
296 296 296 295 295 296 296 295 296 295 295 283 283 279 277 275 283 290 293 291 289 285 279 280 276 281 277 279 278 278 280 282 280 280 281 281 281 281 282 282 282 282 278 280 279 278 279 275 276 275 277 278 277 267 269 270 269 272 276 277 277 277 277 278 279 279 278 277 276 275 272 273 273 271 270 265 266 266 266 266 268 268 267 266 266 266 265
296 296 296 296 295 295 296 296 295 295 290 285 283 281 282 281 284 286 292 292 287 283 279 275 275 275 273 276 275 279 281 281 282 281 279 282 279 281 280 281 279 282 282 279 280 279 276 279 277 277 276 279 278 269 272 271 269 271 276 277 278 278 278 278 278 275 267 267 269 271 272 274 268 267 267 264 265 266 266 266 266 265 265 264 264 263 263
295 296 296 295 295 296 295 295 296 293 285 289 294 295 294 294 293 292 292 288 285 282 282 277 273 274 271 269 270 272 279 276 275 279 275 281 276 278 276 280 280 280 285 279 275 274 278 278 278 275 278 280 274 273 272 270 272 276 277 277 278 278 275 272 267 264 264 263 265 267 270 269 264 264 264 264 264 265 264 264 264 263 261 260 260 261 261
295 296 296 295 295 295 294 294 295 295 293 287 283 284 288 293 292 292 287 285 282 280 280 276 273 272 271 270 266 270 280 275 273 277 270 277 278 277 272 275 279 276 280 277 278 278 277 277 274 272 273 271 276 271 268 272 277 277 277 278 271 264 266 266 264 262 261 262 262 262 263 263 263 263 263 263 262 263 263 262 260 259 259 259 259 261 261
295 295 295 295 295 295 294 294 288 286 284 285 285 285 290 294 294 292 289 284 278 276 275 274 274 270 269 267 268 270 276 275 272 276 273 272 279 276 275 270 276 274 275 282 277 277 275 276 276 270 271 272 269 269 271 273 275 277 276 271 261 263 263 265 263 259 259 260 260 261 262 261 260 260 260 260 260 261 261 259 260 259 258 259 259 260 260
294 294 294 294 294 293 288 288 283 283 281 282 282 290 294 294 294 291 287 285 283 276 275 273 273 270 271 268 266 270 279 273 276 276 275 270 269 273 273 273 270 276 280 278 273 277 274 279 272 269 275 270 269 272 273 270 268 263 260 259 259 259 258 258 257 257 257 258 258 260 259 258 258 258 259 259 259 259 259 258 258 258 257 258 258 259 259
295 294 295 294 287 284 282 282 285 284 281 286 289 294 294 291 284 286 284 283 282 283 277 273 270 270 273 269 267 268 275 268 276 271 270 268 266 265 270 271 270 276 269 268 269 272 276 281 273 271 271 268 271 262 259 259 260 260 259 257 258 258 258 258 257 256 255 256 256 257 257 255 256 257 257 257 257 257 256 255 256 256 255 255 256 256 256
294 294 287 282 280 279 278 281 281 283 291 291 291 284 279 280 277 280 279 277 280 280 275 276 272 274 275 272 268 276 275 268 272 269 264 264 269 266 272 272 272 275 265 268 271 278 271 269 270 270 272 266 257 257 257 256 258 257 257 257 256 257 257 257 256 254 253 255 255 255 253 254 255 255 255 255 255 255 255 256 256 255 255 255 255 256 255
292 285 280 281 279 276 276 275 286 293 289 287 280 275 275 277 276 273 274 276 278 272 277 274 272 276 273 272 273 280 275 268 265 264 265 272 270 263 268 265 273 273 266 265 268 277 265 265 266 267 269 264 259 256 256 257 256 256 256 256 256 256 257 255 256 254 252 252 253 253 252 253 253 252 254 254 254 255 255 255 254 255 254 254 254 254 254
280 279 279 279 277 278 283 284 293 289 283 276 275 275 271 276 273 269 275 270 271 273 276 270 276 275 276 273 272 271 277 271 268 266 265 264 275 264 268 264 270 268 261 262 264 268 262 259 261 261 266 265 256 254 255 255 253 254 255 254 255 255 256 255 254 255 255 254 255 254 254 254 254 253 253 253 252 252 252 252 253 253 253 253 253 253 252
281 280 280 278 277 278 279 278 279 276 275 272 273 274 271 269 271 270 271 268 268 268 273 273 274 270 274 276 275 271 277 276 268 268 268 267 274 271 264 264 270 256 258 259 267 262 258 255 256 260 265 254 252 253 253 252 252 253 253 254 253 253 253 253 254 253 252 252 251 252 252 252 251 252 252 252 252 251 252 252 252 252 252 252 252 252 253
283 282 279 282 280 279 278 278 277 274 274 274 270 267 270 269 271 267 270 266 267 265 263 268 265 269 269 274 272 273 271 272 269 272 270 266 275 268 263 261 264 263 259 263 257 254 257 257 254 254 251 250 252 250 251 250 251 251 251 251 253 252 252 252 251 251 250 251 251 251 252 251 251 251 252 252 252 251 252 251 251 251 252 252 252 252 253
288 285 283 277 277 277 278 274 275 273 269 269 267 264 268 264 268 267 266 268 262 262 262 264 266 274 272 271 267 269 273 278 272 269 268 266 273 268 262 264 261 259 262 257 257 257 256 255 253 256 249 249 249 248 250 250 251 251 252 253 252 253 252 251 251 251 252 252 251 251 251 251 251 251 251 251 251 250 251 251 251 251 251 252 251 252 252
284 282 277 275 274 275 276 265 274 268 266 267 265 263 264 262 263 261 259 262 259 261 264 269 268 271 265 267 268 269 269 273 277 267 266 269 265 263 264 261 262 262 260 258 257 259 258 253 254 251 249 248 250 250 250 250 250 251 251 251 251 251 252 252 252 252 251 252 252 252 251 251 251 251 251 251 250 250 250 250 251 251 251 251 251 251 252
278 276 274 272 269 274 271 265 270 266 265 266 269 261 263 262 263 262 266 263 263 263 264 267 267 267 265 265 265 268 274 267 273 268 266 269 264 265 261 260 257 257 259 258 253 250 251 258 250 247 250 249 251 250 249 250 249 250 250 250 250 250 251 251 251 251 251 251 251 251 250 250 251 251 250 250 250 250 250 250 250 250 250 251 251 251 252
275 273 272 267 265 270 268 263 263 260 264 268 265 261 261 265 265 266 262 257 261 263 266 264 264 265 264 265 268 268 266 267 267 267 268 265 263 262 264 262 261 261 257 253 254 257 260 253 251 250 251 250 249 250 249 249 249 248 248 248 249 249 249 249 249 250 250 251 251 251 250 251 250 250 250 250 250 250 250 250 251 250 251 251 250 251 253
276 276 272 270 266 267 267 263 262 260 259 260 260 263 266 265 259 260 258 258 258 262 260 261 264 267 267 266 267 267 265 263 264 266 267 263 262 264 269 262 260 258 257 255 253 254 251 250 248 250 249 249 248 247 248 248 248 248 248 249 249 249 250 249 249 249 250 250 250 250 250 250 250 250 250 249 249 249 250 250 250 251 251 251 252 253 254
271 273 271 265 265 267 265 264 258 257 257 258 257 257 258 259 261 260 258 258 259 263 261 264 265 266 267 271 269 267 267 265 264 266 268 265 267 260 261 261 260 259 253 254 257 249 248 251 249 250 248 248 247 247 248 248 247 248 248 249 249 249 249 249 249 249 249 249 249 249 249 250 250 250 249 249 249 249 250 250 251 252 252 253 254 255 255
272 268 266 264 265 266 263 260 262 262 259 259 258 258 257 260 258 257 256 256 259 259 259 262 266 268 267 271 268 269 267 269 263 263 266 263 261 260 259 256 253 254 255 252 253 248 247 249 248 247 247 246 247 247 248 248 248 248 248 248 249 249 249 249 249 249 250 250 250 249 249 249 249 248 248 248 248 249 251 252 252 252 253 254 255 255 255
270 266 263 260 262 262 259 260 262 259 259 259 259 258 258 257 256 254 256 255 256 256 263 268 272 270 268 267 263 263 260 261 263 266 262 260 259 258 258 254 254 252 250 245 244 246 247 248 247 248 246 245 247 248 247 248 249 249 249 249 249 249 249 249 249 250 249 250 249 248 248 248 248 248 248 249 250 251 251 251 252 253 254 255 255 255 254
265 262 258 257 260 262 263 261 262 259 258 261 260 259 258 257 257 254 257 254 254 259 263 264 267 263 263 264 263 261 263 264 262 262 261 258 256 255 257 257 254 246 247 248 248 249 247 246 244 244 244 245 247 248 248 248 247 247 247 247 248 248 248 249 249 249 249 249 248 249 248 247 248 249 250 251 251 251 251 252 254 255 255 255 255 255 254
263 259 258 258 257 256 256 258 258 259 258 260 259 257 259 256 257 255 258 257 257 264 262 261 261 262 261 260 260 259 260 261 259 256 255 256 250 251 249 247 249 248 246 246 245 244 244 244 243 244 244 245 247 246 246 246 246 246 246 246 247 247 247 248 249 249 248 248 247 247 247 248 248 249 250 250 250 251 252 253 255 255 255 255 255 255 254
Wind_Speed
5 6 7 7 7 8 12 12 9 9 12 5 4 3 1 4 5 2 3 5 11 9 9 6 6 7 4 4 3 0 2 3 3 5 3 3 3 2 4 5 5 5 8 3 5 7 7 7 8 4 5 7 12 8 9 6 4 0 3 3 5 8 2 2 11 7 9 15 16 12 8 7 5 5 11 9 12 15 14 12 9 10 7 9 9 12 3
6 6 6 7 7 7 7 11 11 10 9 2 4 1 2 3 4 3 0 6 7 8 10 10 12 7 6 3 4 1 3 3 3 5 4 5 2 5 4 2 9 7 6 6 8 6 8 7 14 6 5 6 9 12 8 6 4 5 5 4 3 2 3 5 10 6 3 5 5 8 1 3 8 10 11 16 17 15 13 7 3 10 12 14 14 18 8
6 6 6 6 6 7 5 7 9 10 10 5 2 1 3 4 4 5 3 3 3 8 7 11 6 7 10 9 11 7 3 5 12 7 4 3 4 1 3 7 2 5 4 7 6 5 14 6 5 7 3 6 2 6 13 12 10 9 4 8 3 8 6 5 9 11 16 15 13 9 7 8 5 3 8 9 14 16 8 10 8 15 6 13 14 14 11
7 7 6 6 6 6 5 5 6 7 9 7 3 1 1 1 2 2 1 3 5 6 6 4 4 6 9 10 11 10 12 5 3 8 8 9 4 7 3 3 0 3 2 3 4 8 5 10 1 3 1 2 1 3 8 4 4 8 9 3 2 3 2 11 12 14 16 15 13 3 3 2 3 4 10 10 10 13 14 10 11 14 11 15 14 15 16
7 8 7 5 6 6 6 6 4 4 7 7 2 1 1 3 2 1 2 2 6 9 4 7 5 6 4 9 2 13 13 8 4 8 4 5 9 4 7 5 6 3 7 8 11 9 10 9 12 11 12 1 2 8 4 4 7 5 3 3 1 2 7 12 16 19 19 18 18 19 17 18 11 9 7 6 6 5 9 11 15 9 13 20 8 15 17
9 8 8 7 6 5 4 6 4 2 3 4 3 1 2 1 4 1 3 3 3 6 8 5 6 8 7 8 3 6 7 4 8 0 2 0 1 4 1 10 11 12 11 6 7 3 10 5 10 1 1 3 7 7 5 5 5 9 4 3 2 3 6 7 13 19 16 18 20 20 19 17 15 15 14 17 17 15 17 18 19 16 17 22 15 16 19
10 9 8 8 7 7 6 4 6 2 1 4 2 1 5 1 2 3 4 1 4 3 5 7 5 5 6 2 9 14 14 14 8 2 2 0 2 9 8 5 5 6 5 8 5 5 8 7 2 2 3 4 3 4 3 1 7 8 5 7 1 3 5 9 13 17 15 18 18 19 20 19 15 15 14 16 19 22 24 25 22 21 21 20 21 21 25
10 10 9 10 8 8 7 6 4 4 3 5 3 3 1 3 0 3 4 2 5 6 3 3 5 5 5 4 6 8 12 15 11 1 4 5 4 2 13 1 3 3 4 1 2 1 1 1 4 1 4 4 0 1 3 7 2 3 4 4 2 3 5 8 8 9 9 11 13 15 14 16 16 18 19 19 20 23 23 23 20 19 21 19 23 24 24
12 11 11 10 10 9 8 8 6 3 5 2 1 3 3 2 1 1 5 6 3 0 1 3 6 6 3 8 6 8 7 9 0 3 1 2 4 2 2 2 1 1 4 3 3 1 3 1 2 2 1 3 1 2 4 3 10 12 4 1 2 2 5 6 8 10 10 8 7 10 10 14 17 17 18 20 20 21 18 17 15 16 21 22 22 19 11
12 12 12 12 11 11 11 10 8 8 3 4 1 1 2 2 2 1 1 5 4 3 2 1 3 7 4 3 3 2 3 4 5 5 2 7 6 5 3 4 2 1 1 3 4 5 3 5 5 5 6 8 8 8 8 7 6 2 8 3 6 3 5 6 6 13 11 12 13 8 11 13 14 15 18 22 23 20 16 15 16 14 9 11 8 4 6
13 13 13 13 12 13 13 12 11 11 4 3 3 2 1 2 1 1 0 7 4 5 2 6 6 3 2 4 3 5 1 7 9 1 2 5 2 5 5 4 5 2 4 0 3 3 5 6 7 6 8 10 11 9 10 13 12 11 7 5 4 6 7 9 5 12 10 13 17 12 12 16 14 3 6 3 6 5 7 6 6 8 5 1 6 3 4
10 11 12 12 13 15 14 14 12 13 7 5 5 4 4 3 3 1 0 8 7 1 6 6 5 2 4 4 2 2 7 6 1 3 3 7 8 6 3 2 3 3 1 3 3 1 5 5 6 5 8 10 12 13 13 14 16 13 11 11 11 13 10 12 6 11 13 11 10 12 17 16 5 6 4 5 8 11 4 7 8 7 8 4 7 8 9
15 14 13 11 9 8 9 11 14 14 11 5 5 4 3 3 4 2 2 5 7 7 5 5 4 5 6 5 8 7 5 4 2 3 4 5 8 4 1 1 2 3 4 4 3 5 4 7 7 7 7 5 7 12 15 16 18 16 13 15 13 12 13 8 7 7 8 6 7 13 16 5 8 7 8 2 2 5 7 4 10 8 8 6 6 6 5
17 18 17 16 16 15 13 12 12 14 14 8 5 5 4 3 4 4 3 3 8 7 5 9 11 11 9 11 11 10 6 10 8 4 7 4 7 9 2 1 3 0 1 0 2 3 3 2 4 4 6 1 4 3 9 12 14 16 14 13 14 15 8 5 10 5 10 7 11 18 9 14 12 8 7 5 3 4 1 3 2 6 5 4 2 5 5
17 17 17 18 17 17 16 16 15 15 14 10 6 4 5 5 5 3 2 5 8 7 5 9 2 2 5 5 4 3 4 4 3 4 4 1 1 1 2 1 2 3 0 1 2 2 1 0 2 1 5 2 3 4 4 1 4 6 14 13 11 11 13 8 10 6 10 12 10 10 7 13 1 4 9 5 7 5 5 3 4 7 1 3 2 3 2
18 17 16 16 17 16 16 16 17 17 16 14 6 6 7 7 5 3 4 4 3 9 9 13 12 6 5 4 2 4 3 1 2 1 4 3 2 6 4 1 1 2 0 1 1 2 1 2 5 2 5 3 4 1 4 1 4 5 4 2 4 2 8 12 12 10 9 11 12 8 7 2 6 5 3 8 8 6 2 3 6 4 2 7 5 3 4
18 18 17 18 18 17 17 18 18 18 17 16 5 6 6 7 7 7 5 4 8 11 2 4 1 2 6 3 2 2 4 4 3 1 3 3 3 2 5 2 1 2 4 2 1 1 0 2 1 3 3 1 1 4 2 1 2 3 4 2 5 2 1 3 8 9 7 7 9 11 3 5 2 1 6 6 6 4 3 6 2 5 6 6 6 3 4
19 19 18 17 17 18 18 17 17 18 18 18 9 6 5 7 9 5 3 5 7 8 12 6 3 4 6 4 3 3 2 0 1 1 1 2 1 3 3 1 1 4 4 2 1 2 4 3 4 6 6 4 3 1 5 3 1 3 2 2 2 2 5 3 9 7 9 11 10 6 6 1 2 3 5 7 3 2 7 15 2 9 5 5 6 4 5
18 18 19 20 18 18 18 17 18 19 17 17 5 2 6 7 8 9 5 5 6 10 4 7 12 12 7 2 4 3 4 3 2 2 3 4 4 3 3 3 1 2 2 4 1 3 3 4 1 2 2 5 1 6 3 4 5 1 2 4 3 3 3 5 3 6 8 7 9 10 7 3 2 6 3 4 2 6 11 2 2 3 6 5 7 7 7
21 20 20 20 19 19 19 19 19 19 19 20 10 7 5 7 10 13 11 9 7 10 10 6 7 14 6 8 7 6 4 3 4 4 3 7 2 3 5 4 4 4 2 1 1 3 2 5 4 1 2 5 5 5 2 6 4 4 3 3 4 4 2 5 4 2 1 0 4 6 9 2 5 2 6 2 2 7 4 5 2 5 6 8 7 7 8
20 20 20 20 19 21 19 19 19 19 19 19 13 6 7 5 7 7 7 6 4 7 11 7 4 11 7 9 12 12 10 11 6 5 8 9 3 2 3 3 4 3 5 4 6 5 4 3 4 4 4 3 6 1 5 2 3 6 5 6 6 2 5 2 4 3 7 7 8 6 3 1 1 2 5 5 9 7 5 3 7 5 7 6 6 6 7
20 20 19 19 18 20 21 20 20 19 19 20 16 3 7 5 7 8 10 9 8 10 3 0 4 7 10 12 12 12 12 11 10 9 7 6 2 8 5 4 4 2 3 3 2 2 1 3 1 1 3 4 0 7 2 5 7 4 1 1 8 5 9 6 11 4 7 7 7 6 3 3 7 9 11 9 9 5 3 3 6 8 8 6 4 7 6
19 18 18 20 20 19 20 20 19 19 19 20 15 5 10 3 4 4 9 7 5 4 3 3 2 4 4 4 3 7 10 9 9 5 7 6 6 5 9 8 9 3 1 4 7 5 5 6 7 3 2 3 8 8 3 8 5 3 8 4 8 2 2 1 3 6 7 6 7 10 8 7 13 11 8 6 6 6 5 5 7 7 9 6 8 6 5
20 20 19 19 20 20 19 19 21 21 21 19 14 5 7 7 6 6 2 4 4 6 6 7 5 9 11 15 16 7 4 4 7 11 10 10 9 8 3 5 1 1 4 8 6 7 5 4 6 3 10 4 3 5 9 9 8 5 7 6 3 5 5 3 6 8 9 10 7 8 9 11 10 11 8 5 6 8 7 8 8 9 7 6 5 5 5
20 20 19 19 18 19 18 17 17 19 20 20 14 8 2 2 5 8 7 6 5 7 9 4 14 18 12 11 7 8 12 11 9 11 9 10 14 12 14 8 8 11 10 4 2 3 2 1 2 1 9 6 7 12 8 10 8 7 8 8 4 8 5 8 12 15 10 14 14 13 10 12 10 8 9 12 12 12 10 10 9 7 5 5 5 4 4
20 20 20 20 19 19 19 18 19 18 18 18 13 6 6 7 7 8 6 5 2 2 6 11 7 2 3 5 9 8 8 13 14 14 14 15 16 17 16 4 0 2 2 2 5 5 6 5 4 4 6 7 8 8 9 10 7 4 11 10 10 6 4 4 4 6 9 12 9 11 15 12 12 15 13 13 12 12 11 8 6 4 4 4 3 2 3
21 20 20 19 19 19 19 19 19 19 18 17 10 7 7 4 9 11 9 7 3 5 8 11 2 0 0 8 2 3 4 11 12 13 13 13 13 11 8 8 8 5 6 5 3 4 3 4 3 9 8 6 3 5 3 3 4 6 9 11 2 2 11 13 9 10 12 12 15 12 9 10 10 7 9 10 7 7 9 4 4 3 4 3 4 6 2
22 21 20 20 19 18 18 18 18 18 18 18 11 7 6 8 9 11 11 10 12 10 2 1 1 5 1 4 3 4 6 9 10 10 11 12 12 11 11 12 11 9 8 7 8 5 6 8 12 7 5 4 6 9 9 6 6 9 11 11 8 10 14 10 9 10 12 15 17 14 12 11 12 14 14 9 2 4 6 7 5 3 1 2 3 7 9
22 21 21 20 19 20 19 19 18 18 18 14 1 0 1 8 8 10 11 9 8 7 7 7 2 1 7 4 2 6 5 9 10 11 11 11 12 12 12 13 11 11 10 8 7 8 7 9 7 6 6 4 3 6 4 8 10 14 13 12 14 14 13 15 17 18 19 18 17 12 8 11 12 12 7 2 1 1 3 0 1 1 2 2 3 4 6
23 23 22 21 20 19 19 18 17 16 15 2 5 1 5 5 9 10 10 10 9 5 7 6 7 5 2 1 5 6 7 8 9 11 12 11 10 11 12 11 11 10 8 7 7 9 10 8 8 8 6 6 4 2 7 9 11 12 13 15 15 13 12 15 16 17 17 18 12 7 8 9 7 2 4 4 6 5 2 2 3 3 3 2 4 5 4
23 22 21 22 22 20 19 19 17 17 12 4 3 5 4 7 2 10 16 13 12 8 3 3 7 2 4 2 3 9 9 9 10 10 13 12 10 11 10 8 8 8 7 8 9 11 7 6 7 4 3 10 7 3 6 5 10 10 12 11 12 13 13 15 16 15 12 10 10 7 4 8 5 2 1 7 7 6 3 2 2 2 3 5 6 6 7
24 23 22 21 21 20 18 19 19 17 7 8 8 7 3 2 2 6 14 12 8 5 5 4 4 3 3 2 2 3 10 12 9 4 2 5 7 7 6 9 9 9 9 10 10 6 9 11 9 11 9 10 8 2 5 10 13 16 13 12 9 11 11 12 10 3 10 7 7 8 10 12 5 3 3 6 6 4 3 4 4 4 5 5 6 6 7
25 23 22 22 20 19 19 19 19 13 6 9 16 18 14 1 8 2 9 8 6 3 2 3 5 1 2 5 1 2 3 2 0 4 5 4 6 4 5 6 7 4 7 7 5 5 5 9 9 11 12 6 4 4 7 12 14 12 14 13 14 9 5 6 8 7 6 7 7 3 9 6 5 7 4 4 2 3 5 7 6 5 5 7 10 9 7
25 22 20 20 19 19 20 20 17 16 11 6 6 7 6 11 7 8 6 3 1 1 1 4 3 5 5 2 2 3 5 6 5 7 4 3 3 5 4 3 6 5 6 11 7 6 3 1 8 5 4 3 6 2 7 10 10 14 13 14 3 7 2 2 6 6 6 6 4 1 4 5 5 4 3 4 5 5 5 4 5 7 9 8 9 9 9
22 21 22 20 18 18 17 15 7 3 5 5 5 1 6 16 16 17 16 9 5 3 3 3 2 4 3 1 3 5 3 3 4 6 8 4 3 7 2 2 3 6 6 6 5 8 8 8 4 2 9 3 3 8 7 10 15 13 7 4 9 8 6 2 2 7 8 6 6 4 3 5 6 5 5 7 6 6 7 4 4 7 11 13 11 11 8
22 20 19 18 18 12 2 4 2 3 3 4 4 7 16 17 18 12 12 7 3 3 4 4 4 6 5 7 4 3 3 3 1 3 3 1 2 0 2 3 5 7 1 4 6 7 9 5 5 7 5 6 8 9 8 2 1 5 6 5 7 7 3 3 7 10 9 8 4 2 6 6 6 7 7 6 7 5 6 9 8 5 8 12 14 13 11
21 19 17 11 1 3 3 4 2 4 5 5 7 8 13 8 6 3 2 3 2 1 4 3 4 7 9 6 0 3 4 3 3 2 1 3 5 1 2 2 8 2 1 2 4 8 10 6 6 9 7 11 9 5 6 4 4 4 5 3 5 5 4 4 6 8 7 7 3 3 6 6 7 4 8 9 7 7 8 8 8 9 12 15 14 13 12
18 16 4 3 3 3 3 4 5 5 8 9 8 4 2 2 3 3 2 4 2 4 3 3 7 2 2 4 3 3 4 4 2 6 2 2 1 2 2 3 4 3 6 5 8 5 1 3 7 10 14 0 7 5 6 5 5 5 5 5 4 5 4 5 6 7 8 8 6 10 13 11 10 6 8 14 11 11 11 9 9 8 9 11 12 13 14
12 2 4 4 4 4 5 4 5 10 7 2 3 1 0 1 3 3 4 2 2 4 3 6 7 6 4 5 4 2 7 6 2 1 3 3 4 5 2 2 3 4 4 1 6 8 2 2 2 2 9 4 3 3 2 5 4 4 4 4 4 5 4 4 5 5 1 2 5 4 4 8 12 16 8 10 13 12 9 10 10 9 9 11 13 13 14
5 4 4 4 6 4 3 1 5 9 2 2 0 2 2 2 4 3 2 2 2 2 3 5 3 6 11 12 9 8 3 4 9 8 6 4 0 4 1 2 3 3 4 4 5 2 4 3 2 2 8 4 4 4 4 3 2 4 4 4 4 5 4 5 4 4 4 6 7 6 6 8 9 11 13 13 13 16 16 11 8 10 11 12 13 15 16
4 4 4 6 4 3 2 3 5 3 2 2 1 1 2 2 2 1 2 3 2 3 0 3 3 2 3 7 7 10 2 3 1 4 4 5 2 5 1 2 1 3 2 2 3 3 2 1 1 5 7 1 2 2 2 3 1 4 3 3 2 3 2 4 4 4 4 6 5 6 7 7 8 9 10 11 13 14 15 16 16 13 13 15 16 16 14
5 6 3 5 3 4 3 2 2 2 0 1 3 4 4 2 1 0 2 5 5 2 3 2 2 6 7 10 8 3 2 1 2 1 2 4 3 6 3 0 1 4 3 4 2 1 2 2 1 4 1 2 1 1 1 3 2 4 4 3 4 3 4 4 6 5 4 7 7 8 8 8 9 10 9 11 13 14 15 16 18 16 14 15 14 14 14
14 9 5 5 2 1 1 2 2 2 4 3 2 3 2 3 3 5 3 1 2 2 4 1 2 1 2 2 1 0 3 1 2 1 2 3 1 3 2 1 1 0 3 1 2 2 1 3 3 5 1 3 1 2 1 2 3 4 4 4 5 4 5 6 6 7 6 7 8 8 9 9 10 10 9 11 13 16 15 14 15 16 15 14 14 14 14
5 3 2 0 3 3 3 4 2 3 2 2 3 6 3 3 3 1 1 4 2 2 5 7 6 7 4 0 4 1 2 1 3 2 1 1 3 2 1 3 4 3 2 1 1 2 4 3 3 1 3 2 2 1 2 3 4 4 5 3 4 5 5 5 6 7 8 7 7 8 8 10 11 10 8 9 10 15 17 15 13 14 15 15 14 14 14
5 1 2 1 2 2 4 3 2 3 7 6 4 3 4 7 5 5 8 3 4 4 0 1 3 5 4 2 2 1 2 3 1 4 2 3 0 1 3 4 1 1 2 3 0 2 3 6 0 0 1 2 1 2 2 3 3 4 6 6 6 5 6 7 8 7 9 8 9 9 10 9 10 12 10 10 10 9 12 16 14 13 13 13 14 14 14
5 5 4 3 4 3 3 1 1 1 2 2 4 6 4 5 7 9 2 3 4 2 6 2 1 3 3 0 4 4 1 3 2 2 2 1 2 3 2 0 2 1 1 2 1 5 8 2 3 3 1 1 3 3 3 4 4 4 4 7 7 6 7 8 8 8 9 10 9 9 10 9 10 11 12 10 10 11 11 12 12 12 13 13 14 15 14
3 1 1 0 2 2 3 3 5 4 2 2 2 3 5 5 3 3 2 0 4 2 2 1 2 2 5 2 1 1 1 1 2 2 3 1 3 1 1 2 2 2 2 4 4 7 4 2 3 1 0 2 4 4 4 5 4 4 6 6 7 8 8 8 9 9 10 9 10 10 10 10 10 10 11 11 10 10 11 11 12 12 12 13 14 14 14
3 0 2 3 4 3 7 4 3 4 3 1 2 0 1 1 5 2 2 1 1 0 3 5 3 1 2 1 2 3 2 2 1 3 2 2 1 2 0 1 2 1 3 4 7 2 1 1 1 1 2 2 4 4 5 5 5 5 6 8 8 9 9 9 10 10 9 10 10 10 10 10 10 11 10 12 12 12 11 11 11 10 11 12 13 13 12
2 3 4 3 1 2 1 3 8 6 1 1 1 3 2 3 2 1 2 1 0 3 1 2 3 4 2 2 3 2 2 1 2 2 2 0 2 3 2 3 1 2 5 3 2 2 3 1 0 1 3 4 4 4 6 5 6 6 7 8 9 9 9 10 10 11 11 10 10 11 10 10 10 10 10 10 11 11 10 10 11 12 12 13 11 11 11
3 0 3 3 4 4 0 2 6 2 0 1 1 2 2 4 2 1 0 0 0 0 2 2 2 1 1 2 0 0 1 1 1 0 2 2 2 1 2 2 4 6 2 1 2 3 1 0 1 3 4 4 5 5 5 6 6 7 8 8 8 9 10 11 12 11 10 9 10 10 10 10 10 9 9 11 11 11 12 11 12 12 11 8 9 9 9
3 3 2 2 2 6 8 6 10 8 6 6 5 5 4 5 5 2 1 1 1 1 2 3 2 2 1 1 1 1 1 1 2 2 3 3 1 2 4 6 3 3 3 2 1 0 1 1 1 3 4 5 6 6 5 7 7 8 8 8 9 9 10 10 10 11 10 10 9 10 10 10 10 10 11 10 11 11 12 11 10 7 7 8 6 7 7
2 2 1 1 3 4 2 3 5 4 2 1 4 1 2 3 0 1 2 1 1 6 4 2 3 2 2 3 3 1 1 2 0 2 1 4 3 3 4 4 4 5 4 1 2 2 2 3 3 4 4 5 5 6 6 7 8 9 9 9 9 9 9 9 10 9 10 10 10 9 10 11 11 10 9 9 10 9 7 6 6 6 7 6 6 7 6
Wind_Direction
306 314 321 324 342 13 19 10 357 7 3 23 340 316 250 214 229 344 151 179 158 154 204 210 220 221 247 13 309 171 290 221 217 198 196 222 195 237 214 213 236 233 242 213 239 188 248 171 223 195 232 227 208 206 186 166 100 354 280 283 221 86 120 181 255 256 259 263 267 262 239 241 278 240 223 217 230 216 227 235 240 256 254 254 255 241 257
303 305 309 314 313 322 5 15 20 15 21 61 329 346 294 311 310 326 278 210 188 182 211 215 220 237 265 249 252 265 223 220 256 210 219 181 207 207 212 297 221 249 207 219 237 162 273 195 229 243 211 256 215 228 227 186 219 167 229 210 224 248 220 211 276 269 274 257 297 285 244 142 220 234 221 221 234 234 237 252 66 257 230 243 251 257 237
288 299 302 307 306 305 325 356 19 26 20 27 39 31 311 333 280 230 273 226 242 216 204 235 238 228 243 245 247 252 234 212 234 232 228 223 201 138 267 225 148 236 197 236 236 210 225 276 245 226 204 235 288 261 230 218 228 206 203 202 153 227 224 185 236 253 266 267 254 253 255 226 216 258 256 239 222 230 238 246 223 248 221 225 244 256 247
288 286 291 297 301 298 303 315 341 16 20 22 72 269 13 276 287 276 189 264 255 270 283 284 235 246 248 242 242 244 252 248 230 203 241 201 226 234 291 339 338 234 319 289 247 252 231 229 261 222 297 276 346 45 355 326 304 322 326 353 1 244 234 228 237 239 247 253 264 267 90 34 196 247 222 230 224 223 226 235 242 243 256 244 242 255 265
278 286 288 299 300 316 316 310 317 350 8 25 40 1 193 287 265 253 292 263 231 254 229 230 217 246 184 244 183 233 240 249 277 179 261 221 219 246 218 216 222 232 225 234 255 238 261 238 255 252 260 303 292 326 333 328 347 321 325 342 115 17 255 235 241 242 249 258 266 275 275 271 262 270 259 264 254 238 225 225 244 252 269 262 242 250 252
271 271 280 280 279 281 294 298 317 345 355 23 65 25 262 166 248 4 247 292 238 234 246 285 257 251 227 254 289 272 268 221 242 49 253 228 220 219 340 236 222 240 232 256 252 220 250 236 258 287 15 11 330 344 341 60 18 44 12 336 199 227 232 244 246 256 257 261 265 264 268 260 262 259 260 258 260 263 260 253 252 250 248 263 269 266 267
266 272 274 276 271 264 273 287 298 284 250 101 101 92 285 164 305 280 301 1 267 309 315 328 287 298 261 280 234 246 244 249 239 207 312 93 257 204 252 226 254 248 256 235 238 245 264 252 57 99 8 17 319 343 322 155 54 27 7 348 213 280 249 249 253 263 256 259 256 258 257 265 265 265 266 263 262 260 256 259 256 254 260 264 267 264 262
256 262 267 263 263 271 265 271 282 286 99 89 87 201 119 292 318 315 357 291 298 291 292 313 332 312 271 274 200 243 241 254 253 276 202 252 268 217 237 168 101 103 41 25 190 231 304 238 265 84 68 319 6 223 246 295 345 35 335 308 283 241 280 2 339 309 292 280 275 277 278 278 272 264 261 261 258 260 261 267 273 276 268 267 263 264 267
264 263 257 256 260 258 261 254 243 243 117 28 163 267 170 240 64 282 319 306 257 125 359 268 278 271 224 246 269 260 253 259 10 255 260 185 239 25 95 27 51 100 146 199 228 225 110 27 160 266 129 246 302 50 275 12 316 315 305 177 281 351 288 304 290 292 281 281 277 269 272 270 272 274 272 272 270 267 260 258 257 258 264 264 269 268 285
255 253 252 252 252 252 252 253 241 237 204 118 198 157 259 70 291 138 185 260 267 285 268 276 309 247 250 273 303 358 347 34 339 320 31 50 62 95 87 3 51 284 95 275 165 132 161 204 224 220 221 216 236 213 227 225 226 267 281 239 270 249 287 286 304 284 260 271 268 287 293 300 280 264 256 255 259 262 269 262 262 271 306 304 294 4 27
255 246 248 250 251 249 246 241 240 240 185 147 167 227 167 134 195 7 205 268 260 225 253 266 239 266 31 353 355 334 123 34 12 291 283 95 102 80 36 12 4 305 297 13 121 187 215 219 225 229 230 230 238 237 233 237 230 226 238 276 244 245 246 267 260 268 286 291 289 296 290 261 261 327 22 350 284 301 288 317 17 8 28 352 96 111 19
266 276 267 260 247 240 239 242 241 236 197 192 169 198 191 133 105 138 157 251 264 132 166 230 208 277 329 315 7 287 305 326 324 20 272 302 299 340 23 32 291 311 93 73 347 325 251 246 253 245 232 239 241 242 236 236 237 224 216 225 250 253 255 257 253 267 275 282 288 281 248 259 276 94 34 67 75 54 73 70 31 22 31 49 80 50 35
260 258 258 260 262 263 264 260 246 236 224 167 169 203 225 152 131 163 160 246 259 255 251 260 287 278 274 310 303 277 268 259 272 294 270 266 291 294 258 239 163 266 29 357 20 336 322 283 288 266 268 250 246 244 246 242 246 238 220 212 221 238 244 255 250 246 273 255 244 257 254 270 118 98 40 9 83 35 45 106 66 18 29 33 40 44 34
254 253 252 253 254 253 250 249 256 258 241 174 177 195 169 135 145 182 193 216 258 253 243 273 261 256 258 264 262 273 287 285 275 248 278 241 261 278 292 142 219 357 279 112 27 299 346 21 347 7 305 347 351 310 249 247 243 240 236 220 217 230 247 232 267 214 255 245 250 256 304 295 271 278 359 41 3 344 88 261 41 66 332 23 22 1 354
253 252 252 251 250 248 246 245 246 246 255 227 167 182 168 181 172 178 197 238 254 269 227 248 215 169 237 246 230 248 246 267 300 276 238 336 303 256 141 266 264 246 106 50 341 19 160 196 12 320 324 344 277 250 323 324 294 232 228 229 214 210 217 218 241 228 223 259 270 275 280 266 262 159 248 266 224 248 235 229 239 104 42 229 105 332 298
255 253 251 250 249 246 244 245 243 244 241 235 187 199 199 185 171 145 196 208 267 263 246 229 238 234 241 236 212 210 242 240 233 292 328 286 274 301 275 231 292 99 46 98 181 117 220 139 238 174 229 211 242 22 292 343 335 300 43 93 124 228 222 227 232 257 256 252 249 253 265 284 121 270 240 244 251 246 218 187 230 132 153 241 175 221 230
253 251 250 250 247 243 243 244 242 237 239 239 199 198 222 176 162 178 187 212 213 232 53 66 225 197 243 273 227 282 225 231 219 266 275 277 259 300 308 336 315 142 189 95 283 118 338 205 250 196 274 227 34 215 259 19 235 319 310 13 24 24 289 160 237 247 249 276 270 270 256 233 199 198 251 233 257 252 161 284 254 131 217 226 197 253 242
257 256 251 247 247 250 246 243 242 243 240 235 217 188 214 189 187 146 183 197 231 250 237 188 115 185 220 172 192 229 77 337 41 256 224 260 24 294 277 345 283 289 168 123 220 106 213 198 213 229 236 261 162 316 241 280 270 230 262 243 254 283 286 196 243 242 260 252 267 286 276 171 209 277 275 275 248 95 291 270 321 329 285 213 196 235 238
253 253 253 251 248 245 246 246 248 246 241 240 229 95 238 194 187 176 180 202 217 245 211 179 210 230 232 117 165 185 181 175 168 232 282 349 255 211 189 236 159 282 7 158 65 166 194 241 108 152 198 289 254 212 237 235 232 347 98 309 315 285 196 294 178 213 225 238 250 250 275 224 146 282 194 267 16 275 251 241 298 276 278 251 198 218 237
253 252 253 254 253 250 245 246 245 247 244 240 214 201 212 184 188 178 191 212 212 239 236 203 189 215 209 201 215 230 269 255 209 194 186 237 238 68 344 307 321 89 334 118 228 228 121 235 224 222 241 231 245 191 287 236 257 190 261 214 232 228 268 233 236 243 328 21 278 282 268 228 114 241 350 281 126 222 291 302 257 218 249 255 244 205 227
258 256 253 251 249 250 250 248 246 245 246 245 234 214 245 198 173 198 202 219 250 253 259 216 191 228 213 213 206 215 208 222 189 199 220 231 201 100 212 223 223 130 210 159 185 228 173 223 240 212 222 176 258 354 207 213 326 272 209 238 245 235 268 248 259 187 268 235 241 229 206 237 265 23 277 286 277 264 253 277 294 288 255 241 240 229 216
255 254 253 255 255 253 250 246 245 246 244 243 235 167 241 207 185 194 192 198 219 228 232 186 200 225 228 222 217 212 213 222 211 192 204 238 231 203 224 235 205 152 208 119 52 342 316 209 25 63 263 260 16 232 219 274 255 267 335 155 289 199 216 214 247 222 231 212 234 246 264 311 288 282 273 259 259 266 238 226 260 287 277 222 209 231 228
251 251 252 252 251 251 253 253 248 244 244 243 237 176 226 157 192 148 145 207 238 279 288 277 271 273 279 258 227 216 219 215 213 201 196 217 259 232 222 228 244 173 189 180 207 201 220 164 228 187 291 187 230 264 257 195 261 220 243 224 237 287 228 192 357 255 260 246 238 266 290 273 267 265 255 236 257 264 256 260 277 252 252 196 203 220 217
250 249 249 250 252 251 248 248 251 251 245 241 235 177 225 201 175 117 147 213 211 259 258 225 223 231 216 235 228 210 209 216 206 211 207 200 234 253 223 222 158 178 208 215 173 224 220 172 218 184 246 223 107 226 247 253 221 228 251 275 270 249 240 221 230 263 266 262 243 244 245 254 250 252 264 264 238 249 266 269 250 253 227 215 209 198 218
248 249 248 250 250 251 253 251 247 250 250 246 240 225 170 151 160 167 164 200 209 196 241 240 215 233 234 234 230 211 216 217 214 214 204 204 214 230 238 202 179 210 236 206 173 215 52 177 289 185 236 224 179 248 219 246 260 148 245 236 271 284 186 215 236 251 237 262 257 259 249 244 260 265 271 272 273 272 261 245 239 220 202 194 201 171 222
246 246 247 248 250 249 249 251 251 250 249 249 241 201 195 203 168 178 185 222 223 157 237 247 271 37 204 193 215 203 187 204 215 217 210 210 214 221 238 233 324 256 250 124 128 190 226 233 204 233 239 258 196 247 242 224 245 200 231 238 218 241 70 211 168 218 244 265 277 274 266 273 269 266 263 258 256 259 262 245 208 188 210 252 282 202 227
245 245 245 246 246 248 250 250 249 249 251 248 240 214 215 201 167 177 191 176 196 276 222 248 224 255 216 215 205 135 180 199 210 215 220 221 223 231 235 245 235 239 240 239 199 212 216 233 190 243 213 245 234 244 243 278 199 242 243 245 203 206 248 256 259 263 258 257 260 256 270 269 266 251 251 259 248 234 246 215 203 209 230 262 283 283 225
245 243 242 244 247 248 249 250 251 251 248 248 247 224 195 202 199 195 195 185 188 233 295 278 283 254 313 285 240 193 197 197 201 207 215 219 218 218 224 228 227 230 231 225 235 198 207 218 234 240 258 245 250 252 244 284 286 261 247 244 212 218 241 251 247 242 256 253 255 254 257 274 270 279 279 297 305 213 231 229 223 228 256 311 300 292 303
244 245 244 242 242 245 245 245 243 245 249 252 192 103 247 223 209 203 200 196 202 234 249 262 265 120 253 253 149 194 204 187 196 202 209 215 210 212 216 221 220 223 227 227 232 240 232 234 228 225 218 189 192 251 234 234 231 246 241 237 233 234 234 240 250 256 260 264 264 263 267 263 272 272 300 11 355 178 228 246 35 12 303 292 287 283 288
239 241 241 242 243 243 243 243 243 245 247 227 97 172 260 257 194 201 193 192 195 208 232 222 233 248 358 134 222 192 199 201 203 198 206 210 211 210 213 214 226 222 217 220 220 234 233 244 237 231 233 137 215 221 228 242 246 246 243 242 242 245 237 240 242 247 254 255 267 275 267 268 267 328 88 79 44 29 28 2 351 314 314 334 295 287 277
239 240 242 243 242 241 242 245 246 245 236 113 122 191 211 259 177 184 191 196 185 191 209 227 243 26 295 237 176 198 188 196 204 207 212 210 210 210 213 204 226 208 215 217 224 238 234 235 232 227 177 193 198 192 232 234 253 252 246 240 241 240 237 241 242 250 270 292 298 304 316 272 278 330 134 56 359 15 343 324 322 339 318 309 289 286 289
235 236 239 241 242 239 238 239 242 241 214 175 190 196 181 190 236 202 194 183 149 158 180 233 246 209 240 260 233 200 182 199 200 181 204 157 226 208 220 192 219 202 214 229 232 249 233 242 244 241 238 203 193 250 226 241 250 253 255 251 248 246 242 250 265 333 53 15 9 319 290 274 66 24 310 353 337 323 323 316 329 315 309 296 293 290 284
238 235 235 237 238 241 243 243 242 232 189 209 224 234 234 186 24 121 189 140 133 176 176 219 218 221 233 242 334 310 171 93 115 153 245 172 218 152 214 198 224 237 212 235 208 235 214 231 228 241 239 207 218 224 230 232 243 252 259 259 258 275 310 27 59 69 55 31 38 230 267 308 344 338 329 307 312 318 336 323 316 325 322 313 302 299 290
233 231 232 234 236 236 240 243 243 248 251 234 245 232 228 231 217 137 107 94 114 336 123 196 209 208 238 3 47 276 154 159 205 163 246 246 182 144 206 144 191 190 201 209 222 231 217 140 220 239 41 236 220 239 241 241 244 253 253 256 338 4 341 67 36 44 20 0 7 290 286 297 308 298 298 319 322 326 315 315 330 333 313 299 292 295 300
235 232 233 233 234 239 240 246 251 222 205 227 246 60 166 207 204 168 166 161 160 219 174 249 153 219 241 322 218 265 193 113 181 193 190 256 166 186 169 131 204 193 220 177 239 222 230 222 125 177 225 114 156 232 235 239 243 248 271 359 19 344 15 26 59 21 345 329 323 322 334 350 334 343 340 327 324 327 331 323 348 330 310 305 300 303 308
234 233 235 235 237 236 228 245 166 165 197 214 225 194 194 206 208 190 187 206 200 182 190 198 164 208 196 229 208 254 111 222 168 127 197 140 355 278 153 166 221 214 182 185 229 210 230 177 115 236 198 201 223 226 248 327 338 65 60 45 22 36 36 21 330 334 320 314 295 336 358 356 355 318 320 309 314 322 331 321 313 301 287 294 300 307 308
222 226 225 225 65 71 210 211 175 181 211 175 203 188 211 191 27 89 124 211 288 163 196 165 192 212 189 211 130 258 117 203 180 175 158 164 212 271 119 189 218 208 47 266 207 222 233 160 213 237 224 232 235 58 54 34 43 46 70 42 25 15 16 359 356 325 318 308 306 4 353 332 323 326 320 318 319 322 325 318 321 323 312 304 303 302 297
223 220 181 93 98 189 187 197 190 213 197 198 163 92 334 34 146 169 194 215 210 128 260 155 225 168 91 139 231 204 128 247 93 179 274 231 155 252 172 208 209 208 236 215 228 177 74 171 220 221 243 105 62 68 52 64 62 53 51 40 23 2 11 358 358 359 353 350 349 346 337 334 321 327 335 317 324 320 311 307 307 302 291 291 292 296 300
208 161 80 174 157 203 187 229 218 168 136 91 60 77 202 168 147 224 197 180 177 208 183 181 222 157 143 197 233 168 175 178 161 145 185 220 140 276 114 181 223 190 263 188 265 119 226 233 250 193 245 178 155 54 18 60 64 48 42 22 18 345 357 4 1 13 7 245 273 297 289 296 310 308 311 299 301 296 292 302 301 296 292 290 293 293 290
94 171 166 160 202 196 128 329 151 132 87 131 290 135 223 194 188 231 110 167 233 241 147 229 173 182 189 202 200 233 138 159 199 218 188 302 258 171 247 81 258 129 230 192 248 67 149 210 257 84 249 179 118 58 43 38 51 21 17 350 343 346 325 340 326 308 293 282 280 278 285 284 286 289 300 302 302 303 305 298 281 290 294 290 291 292 293
170 126 162 196 190 142 156 127 55 52 102 110 145 229 153 238 206 204 134 234 188 231 160 176 115 188 226 213 213 230 219 98 22 108 140 202 220 84 122 196 145 78 245 232 269 88 88 103 210 190 236 68 159 75 40 22 355 19 334 325 346 297 345 303 294 298 296 287 287 280 276 272 275 276 280 283 287 289 290 297 300 299 297 295 296 294 295
180 161 145 97 102 114 97 44 124 108 235 194 155 214 186 220 72 354 185 166 216 190 282 145 213 196 223 190 206 168 284 148 139 128 153 233 214 158 218 217 347 170 214 216 114 54 89 217 215 257 253 203 92 339 4 356 345 348 321 318 315 331 301 302 293 285 269 274 278 281 279 277 276 277 277 284 284 284 289 295 294 294 292 291 291 292 294
91 92 94 104 96 71 102 134 186 142 175 178 138 232 164 153 206 162 214 242 311 116 253 44 237 72 306 61 344 175 176 142 172 201 111 211 31 63 129 213 108 224 229 13 73 80 193 223 238 249 113 202 322 295 325 306 330 297 312 305 291 298 307 291 286 286 283 281 282 281 283 280 275 272 275 276 281 282 280 277 283 290 294 294 294 293 293
119 111 64 3 98 250 126 206 169 65 224 160 162 193 162 185 269 75 100 245 193 263 217 161 209 143 226 295 147 157 39 321 148 88 243 250 98 202 127 206 207 243 63 40 78 174 223 232 213 181 190 242 259 270 318 316 314 308 302 294 298 282 284 288 287 291 290 280 276 278 280 279 282 280 275 270 270 279 285 286 284 285 289 292 292 291 290
133 113 96 81 154 210 103 223 96 150 208 211 183 195 169 185 190 171 196 228 117 214 247 115 140 155 189 248 44 314 153 206 339 119 227 131 88 206 137 236 237 35 128 210 313 328 358 261 71 277 259 290 256 297 289 300 290 295 296 300 298 296 292 300 299 294 292 294 291 294 289 288 287 286 282 279 275 271 280 287 291 293 292 291 290 291 289
159 166 142 143 188 207 151 211 111 222 271 169 200 180 162 210 170 206 208 57 140 132 130 159 72 116 141 249 144 209 72 113 133 217 158 78 131 238 222 62 100 130 31 57 174 216 222 215 163 220 236 281 304 294 297 284 286 286 312 302 301 302 295 284 289 291 289 293 294 289 289 287 286 289 290 285 285 283 277 278 284 286 289 291 291 291 295
137 146 126 115 140 228 89 170 215 200 184 234 251 229 219 188 157 125 145 187 128 189 107 247 142 182 154 212 106 316 81 57 159 236 97 138 196 238 71 118 206 149 158 232 234 244 256 237 233 203 230 301 295 293 291 294 294 298 288 285 293 293 297 295 290 293 293 289 289 289 288 289 288 286 288 292 288 283 282 283 283 281 283 284 288 292 294
156 94 105 158 199 151 179 210 135 106 63 118 251 245 293 137 111 118 347 5 291 312 145 124 101 89 4 303 75 186 170 178 59 278 155 207 56 47 6 59 241 229 179 171 231 211 205 141 170 273 283 280 281 296 299 298 296 292 293 293 293 297 298 300 297 292 294 295 293 294 291 291 291 292 292 289 290 288 285 282 282 285 286 288 289 291 304
128 131 165 191 202 123 128 114 134 126 284 6 53 43 20 70 102 225 298 330 136 183 227 127 165 116 191 135 159 198 227 189 161 230 82 57 136 207 162 225 167 276 252 157 183 177 198 186 215 277 280 298 290 290 290 290 293 295 295 297 299 298 299 295 293 293 293 294 293 293 295 292 290 290 288 289 289 289 291 293 293 291 290 287 294 311 315
96 70 28 76 76 15 69 94 81 134 294 330 37 87 59 90 88 276 252 187 279 233 235 239 239 115 186 119 285 63 265 264 167 2 72 224 200 245 82 250 219 196 236 237 235 241 236 238 341 324 302 295 291 290 292 294 295 295 298 296 296 296 293 294 296 297 295 293 295 293 290 292 290 287 288 289 290 292 294 292 291 286 287 299 309 312 320
24 79 130 300 148 179 141 165 180 187 188 208 183 195 169 172 165 204 344 143 235 114 72 134 158 114 97 49 108 132 234 104 77 195 168 208 174 130 193 215 235 197 211 204 182 172 252 279 264 271 287 285 287 290 292 294 298 294 295 295 293 290 289 288 289 293 296 295 292 295 293 288 284 284 284 287 288 290 291 286 279 288 313 311 312 318 322
86 86 165 54 51 31 47 88 51 98 117 90 123 345 63 140 224 235 282 291 230 149 176 173 87 101 99 186 210 187 10 38 296 41 352 266 137 147 216 198 189 198 204 193 252 256 272 272 241 241 252 272 286 290 292 294 296 296 296 294 292 294 292 294 293 297 299 300 293 289 288 286 287 287 285 286 285 285 281 300 320 319 314 316 316 315 314